ONEWEB-0405 (50485 NORAD) Tracking and Keplerian Element Data

This shows tracking and keplerian element data for the satellite.

Feedback or suggestion? Click here.




ElementValue
Catalog50485
NameONEWEB-0405
Epoch Orbit130
Epoch Day140.58334491
Epoch Year2022
RAAN306.3534
Inclination87.2985
Eccentricity0.0004925
Argument of Perigee85.3989
Mean Anonmoly130.8731
Mean Motion14.92499087
Decay Rate-0.00060835
L11 50485U 21132S 22140.58334491 -.00060835 00000+0 -59908-2 0 9993
L22 50485 87.2985 306.3534 0004925 85.3989 130.8731 14.92499087 1309

Live tracking and technical data element details for ONEWEB-0405 (NORAD 50485). ONEWEB-0405 can be tracked NOW for your location showing map with azimuth and elevation plus other details from your city location.

Track the satellite on the map from your city or location and see movement details for azimuth, elevation, latitude, longitude, range, height, and movement on the map or in text.







IsCatalogInMostPopularTable: catalog: 50485, numindb: 55
Update: records affected: 1



GetName: 50485 ONEWEB-0405

Hit Count: updated at: Sun, 22 May 2022 05:39:19 GMT